AirNav   Bose ProFlight Aviation Headset
 
 617 users online  

7MI Flugplatz Airport
Lexington, Michigan, USA

GOING TO LEXINGTON?


FAA INFORMATION EFFECTIVE 13 SEPTEMBER 2018

Location

FAA Identifier: 7MI
Lat/Long: 43-20-30.2750N / 082-32-53.8250W
43-20.504583N / 082-32.897083W
43.3417431 / -82.5482847
(estimated)
Elevation: 700 ft. / 213 m (estimated)
Variation: 07W (1995)
From city: 5 miles N of LEXINGTON, MI
Time zone: UTC -4 (UTC -5 during Standard Time)
Zip code: 48401

Airport Operations

Airport use: Open to the public
Activation date: 07/2000
Control tower: no
ARTCC: CLEVELAND CENTER
FSS: LANSING FLIGHT SERVICE STATION
NOTAMs facility: LAN (NOTAM-D service available)
Attendance: IRREG
Wind indicator: yes
Segmented circle: no

Airport Communications

CTAF: 122.9

Airport Services

Fuel available: 100LL
EMERGENCY ONLY

Runway Information

Runway 9/27

Dimensions: 3873 x 80 ft. / 1180 x 24 m
Surface: turf, in good condition
Runway edge markings: 3 FT YELLOW CONES.
RUNWAY 9  RUNWAY 27
Latitude: 43-20.467500N43-20.541667N
Longitude: 082-33.330833W082-32.463333W
Elevation: 669.0 ft.645.0 ft.
Traffic pattern: leftleft
Runway heading: 090 magnetic, 083 true270 magnetic, 263 true
Displaced threshold: 600 ft.1276 ft.
Obstructions: 18 ft. road, 48 ft. from runway, 2:1 slope to clear
APCH RATIO 36:1 AT DSPLCD THLD.
65 ft. trees, 132 ft. from runway, 2:1 slope to clear
APCH RATIO 20:1 AT DSPLCD THLD.

Airport Ownership and Management from official FAA records

Ownership: Privately-owned
Owner: WILLIAM SCHUTZLER
7126 TOWNSEND
APPLEGATE, MI 48401
Phone 810-359-7497
Manager: WILLIAM SCHUTZLER
7126 TOWNSEND
APPLEGATE, MI 48401
Phone 810-359-7497
OTHER CONTACT: GEORGE CRACKEL 6932 TOWNSEND, APPLEGATE MI 48401; 810-359-7176

Airport Operational Statistics

Aircraft based on the field: 3
Single engine airplanes: 2
Multi engine airplanes: 1
    
Aircraft operations: 200/year *
50% transient general aviation
50% local general aviation
* for 12-month period ending 31 December 2015

Additional Remarks

DEER ON AND INVOF ARPT.
FOR RY CONDITIONS CALL 810-359-7697.

Instrument Procedures

There are no published instrument procedures at 7MI.

Some nearby airports with instrument procedures:

77G - Marlette Airport (24 nm W)
KPHN - St Clair County International Airport (26 nm S)
KBAX - Huron County Memorial Airport (32 nm NW)
D95 - Dupont-Lapeer Airport (36 nm SW)
D98 - Romeo State Airport (38 nm SW)
 
Loc | Ops | Rwys | IFR | FBO | Links
Com | Nav | Svcs | Stats | Notes


 
Area around 7MI (Flugplatz Airport)
 
Road maps at: MapQuest Bing Google
 
Aerial photo
WARNING: Photo may not be current or correct
Aerial photo of 7MI (Flugplatz Airport)
Photo by Bill Schutzler
Photo taken 09-Jul-2008

Do you have a better or more recent aerial photo of Flugplatz Airport that you would like to share? If so, please send us your photo.

 
Sectional chart

 
Airport distance calculator
Flying to Flugplatz Airport? Find the distance to fly.

From to 7MI

Sunrise and sunset
Times for 25-Sep-2018
 Local
(UTC-4)
 Zulu
(UTC)
Morning civil twilight06:5310:53
Sunrise07:2211:22
Sunset19:2223:22
Evening civil twilight19:5023:50

Current date and time
Zulu (UTC)  25-Sep-2018 05:07:59
Local (UTC-4)  25-Sep-2018 01:07:59
 
METAR
CYZR 
23nm SE 
250403Z AUTO 16011G16KT 9SM -RA BKN010 OVC013 18/17 A3006 RMK SLP180 DENSITY ALT 900FT
KPHN 
26nm S 
250455Z AUTO 16007KT 5SM RA OVC004 18/18 A3004 RMK AO2
KBAX 
33nm NW 
250457Z AUTO 14008KT 7SM OVC007 18/17 A3002 RMK AO2 T01800170
KD95 
36nm SW 
250455Z AUTO 16005KT 10SM BKN010 OVC014 19/19 A3002 RMK AO2 P0001 T01880185
KCFS 
40nm W 
250455Z AUTO 13006KT 5SM BR OVC006 18/17 A3000 RMK AO2 T01820172
KP58 
42nm N 
250451Z AUTO 15011G17KT 18/17 A3001 RMK AO1 SLP160 T01830172 401940156
CWGD 
44nm NE 
250400Z AUTO 14012G18KT 18/16 RMK AO1 PK WND 16022/0306 SLP185 T01830156 58006
KMTC 
45nm S 
250442Z AUTO 15012KT 10SM OVC009 19/19 A3002 RMK AO2 RAE42 CIG 007V009 CIG 005 RWY01 SLP169 $
TAF
CYZR 
23nm SE 
241938Z 2420/2502 13015G25KT P6SM OVC015 TEMPO 2420/2423 OVC025 FM242300 15015G25KT P6SM OVC025 TEMPO 2423/2502 5SM -SHRA BR OVC015 RMK FCST BASED ON AUTO OBS. NXT FCST WILL BE ISSUED AT 250745Z
NOTAMs
Click for the latest NOTAMs
NOTAMs are issued by the DoD/FAA and will open in a separate window not controlled by AirNav.

 

 
 

Would you like to see your business listed on this page?

 If your business provides an interesting product or service to pilots, flight crews, aircraft, or users of the Flugplatz Airport, you should consider listing it here.  To start the listing process, click on the button below
 
Add a business
 

Other Pages about Flugplatz Airport

Page from the Michigan Airport Directory (PDF)
 
Update a link
 
Copyright © AirNav, LLC. All rights reserved. Privacy Policy  Contact